Regional Weather Roundup
Issued by NWS

Home | Current Version | Previous Version | Graphics & Text | Print | Product List | Glossary On
Versions: 1 2 3 4 5 6 7 8 9 10 11 12 13 14 15 16 17 18 19 20 21 22 23 24 25 26 27 28 29 30 31 32 33 34 35 36 37 38 39 40 41 42 43 44 45 46 47 48 49 50
000
ASUS43 KIND 200209
RWRIN

WEATHER ROUNDUP FOR INDIANA
NATIONAL WEATHER SERVICE INDIANAPOLIS IN
1000 PM EDT THU APR 19 2018

NOTE: "FAIR" INDICATES FEW OR NO CLOUDS BELOW 12,000 FEET WITH NO
SIGNIFICANT WEATHER AND/OR OBSTRUCTIONS TO VISIBILITY.

* - STATION DOES NOT REPORT WEATHER SUCH AS PRECIPITATION OR FOG.

+ - STATION NOT QUALITY CONTROLLED BY THE NATIONAL WEATHER SERVICE.
    USE DATA WITH CAUTION...ESPECIALLY DEWPOINT AND RELATIVE
    HUMIDITY OBSERVATIONS.

INZ001>003-010>013-019-020-200300-
NORTHWEST INDIANA

CITY           SKY/WX    TMP DP  RH WIND       PRES   REMARKS
GARY /AIRPORT/ CLEAR     39  30  70 N7        30.43R WCI  34
KNOX *+        FAIR      34  19  55 NW6       30.40S WCI  29
LA PORTE +     FAIR      39  18  43 N10       30.40R WCI  32
MICHIGAN CITY+ FAIR      37  25  60 NW5       30.41S WCI  34
MONTICELLO +   FAIR      38  15  39 N9        30.39S WCI  31
RENSSELAER +   FAIR      37  14  38 N8        30.41S WCI  31
VALPARAISO     FAIR      41  21  44 N3        30.41S

$$

LMZ046-743>745-200300-
SOUTHERN LAKE MICHIGAN

STATION/POSITION TIME  TEMP    WIND        PRES    WAVE
                       AIR SEA DIR/SP/G            HT
                 (UTC) (F)     (DEG/KT/KT) (MB)    (FT)
BURNS HARBOR     0140   41      10/  5/  6 1030.1S
MICHIGAN CITY    0140   40     260/  4/  8   N/A

$$

INZ004-005-014>016-021>024-200300-
NORTH CENTRAL INDIANA

CITY           SKY/WX    TMP DP  RH WIND       PRES   REMARKS
GOSHEN         FAIR      38  20  48 NW14      30.36S WCI  30
LOGANSPORT +   FAIR      36  19  51 N12       30.39S WCI  27
PERU/GRISSOM   FAIR      38  20  47 NW12      30.36R WCI  31
ROCHESTER +    FAIR      39  21  48 NW10      30.39R WCI  32
SOUTH BEND     FAIR      36  20  52 N9        30.39S WCI  29
WARSAW +       FAIR      36  21  55 NW9       30.37R WCI  29

$$

INZ006>009-017-018-025>027-200300-
NORTHEAST INDIANA

CITY           SKY/WX    TMP DP  RH WIND       PRES   REMARKS
ANGOLA *+      FAIR      37  28  70 NW8       30.33R WCI  31
AUBURN +       FAIR      37  30  75 NW8       30.34R WCI  31
FORT WAYNE     FAIR      41  29  62 NW13      30.34R
HUNTINGTON +   FAIR      38  27  64 NW9       30.35R WCI  31
KENDALLVILLE + FAIR      37  23  56 NW8       30.35R WCI  31

$$

INZ028-029-035-036-043>045-051>053-200300-
WEST CENTRAL INDIANA

CITY           SKY/WX    TMP DP  RH WIND       PRES   REMARKS
CRAWFORDSVL +  FAIR      39  18  41 N9        30.39R WCI  33
GREENCASTLE +  FAIR      43  19  39 N7        30.38R
LAFAYETTE      FAIR      40  18  41 N7        30.40R WCI  35
TERRE HAUTE    FAIR      46  22  38 N7        30.39R

$$

INZ030>032-037>040-046>048-054>057-064-065-200300-
CENTRAL INDIANA

CITY           SKY/WX    TMP DP  RH WIND       PRES   REMARKS
COLUMBUS       CLEAR     45 N/A N/A NW9       30.34R
FISHERS *+     FAIR      41  27  56 N9        30.37R
FRANKFORT +    FAIR      42  19  38 N15       30.40R
GREENWOOD *+   FAIR      46  23  41 N12G17    30.36R
INDIANAPOLIS   FAIR      45  17  32 N14       30.37R
-EAGLE CREEK   FAIR      46  18  32 N14       30.36R
KOKOMO +       FAIR      39  23  52 NW12      30.38R WCI  32
MARION +       FAIR      40  24  53 N9G18     30.36R WCI  34
MT COMFORT *+  FAIR      43  27  52 N14G23    30.36R
SHELBYVILLE    FAIR      46  23  40 NW13      30.34R
ZIONSVILLE +   FAIR      40  23  50 NW9       30.37R WCI  33

$$

INZ033-034-041-042-049-050-058-059-200300-
EAST CENTRAL INDIANA

CITY           SKY/WX    TMP DP  RH WIND       PRES   REMARKS
MUNCIE         FAIR      43  27  53 NW14      30.34R
RICHMOND +     FAIR      43  28  56 NW12      30.31S

$$

INZ060-061-067>069-081>083-085>088-200300-
SOUTHWEST INDIANA

CITY           SKY/WX    TMP DP  RH WIND       PRES   REMARKS
EVANSVILLE     FAIR      46  36  68 NW3       30.38S
HUNTINGBURG +  FAIR      45  34  65 NW3       30.37R
WASHINGTON +   FAIR      45  32  61 NW8       30.37R

$$

INZ062-063-066-070>080-084-089>092-200300-
SOUTH CENTRAL AND SOUTHEAST INDIANA

CITY           SKY/WX    TMP DP  RH WIND       PRES   REMARKS
BATESVILLE +   CLEAR     46  27  46 MISG      30.33R
BEDFORD +      FAIR      48  23  37 NW3       30.35R
BLOOMINGTON    FAIR      45  28  51 N7        30.36R
FRENCH LICK *+ FAIR      48  21  34 CALM      30.36R
MADISON *+     FAIR      45  28  53 CALM      30.35R
NORTH VERNON + FAIR      43  28  56 NW5       30.35R
SEYMOUR +      FAIR      46  30  53 NW5       30.35R

$$




USA.gov is the U.S. government's official web portal to all federal, state and local government web resources and services.